Location: Unspecified
(0.0000°N, 0.0000°E)
Time: 13:58:02
(UTC+00:00)

Vanguard 3 - All Passes

Search period start: 20 January 2017 00:00
Search period end: 30 January 2017 00:00
Orbit: 508 x 3265 km, 33.3° (Epoch: 20 January)

Date Brightness Start Highest point End Pass type
(mag) Time Alt. Az. Time Alt. Az. Time Alt. Az.
20 Jan - 00:55:42 10° W 00:59:58 29° SSW 01:06:25 10° SSE visible
20 Jan - 03:12:51 10° SSW 03:15:27 11° S 03:18:26 10° S visible
20 Jan - 05:30:06 10° S 05:34:57 12° S 05:40:27 10° SSE visible
20 Jan - 07:42:03 10° SSW 07:55:55 27° SSE 08:11:11 10° ESE daylight
20 Jan - 09:55:36 10° SW 10:15:07 60° SE 10:31:48 10° ENE daylight
20 Jan - 12:12:40 10° WSW 12:32:08 63° NW 12:45:24 10° NE daylight
20 Jan - 14:37:04 10° WNW 14:47:16 20° NW 14:54:45 10° N daylight
20 Jan - 23:42:12 10° WNW 23:46:05 58° SSW 23:51:53 10° SE night (unlit)
21 Jan - 01:56:42 10° SW 01:59:51 14° SSW 02:03:46 10° SSE visible
21 Jan - 06:28:15 10° SSW 06:37:54 18° SSE 06:49:18 10° ESE daylight
21 Jan - 08:40:25 10° SW 08:57:39 43° SSE 09:15:01 10° E daylight
21 Jan - 10:55:18 10° SW 11:15:42 89° NW 11:31:25 10° NE daylight
21 Jan - 13:15:37 10° W 13:31:45 36° NW 13:42:52 10° NNE daylight
21 Jan - 22:29:25 10° NW 22:32:56 45° NE 22:37:17 10° ESE night (unlit)
22 Jan - 00:41:37 10° WSW 00:45:06 20° SSW 00:49:49 10° SSE visible
22 Jan - 05:15:59 10° S 05:20:01 11° SSE 05:24:31 10° SSE visible
22 Jan - 07:26:08 10° SSW 07:40:03 30° SSE 07:56:03 10° E daylight
22 Jan - 09:39:15 10° SW 09:58:39 68° SE 10:16:16 10° ENE daylight
22 Jan - 11:56:24 10° WSW 12:15:45 57° NW 12:29:48 10° NE daylight
22 Jan - 14:21:47 10° WNW 14:31:41 19° NW 14:39:13 10° N daylight
22 Jan - 21:17:38 10° N 21:19:46 14° NNE 21:21:52 10° ENE night (unlit)
22 Jan - 23:27:34 10° W 23:31:09 37° SSW 23:36:01 10° SE night (unlit)
23 Jan - 06:12:45 10° SSW 06:22:28 19° SSE 06:34:18 10° ESE daylight
23 Jan - 08:24:16 10° SW 08:41:20 48° SE 08:59:33 10° ENE daylight
23 Jan - 10:39:00 10° WSW 10:59:09 81° NW 11:15:45 10° NE daylight
23 Jan - 12:59:47 10° W 13:15:42 33° NW 13:27:16 10° NNE daylight
23 Jan - 22:14:16 10° NW 22:17:54 72° NE 22:22:06 10° ESE night (unlit)
24 Jan - 00:28:08 10° SW 00:30:17 13° SSW 00:32:48 10° S night (unlit)
24 Jan - 05:01:30 10° S 05:05:02 11° SSE 05:08:59 10° SE visible
24 Jan - 07:10:14 10° SSW 07:24:04 33° SSE 07:40:43 10° E daylight
24 Jan - 09:23:02 10° SW 09:42:04 75° SE 10:00:32 10° ENE daylight
24 Jan - 11:40:19 10° WSW 11:59:22 51° NW 12:14:05 10° NE daylight
24 Jan - 14:06:38 10° WNW 14:16:11 17° NNW 14:23:41 10° N daylight
24 Jan - 21:01:39 10° NNW 21:04:45 22° NNE 21:07:40 10° E night (unlit)
24 Jan - 23:13:07 10° W 23:16:14 24° SSW 23:20:04 10° SSE night (unlit)
25 Jan - 05:57:12 10° SSW 06:06:57 21° SSE 06:19:12 10° ESE daylight
25 Jan - 08:08:13 10° SW 08:24:54 54° SE 08:43:50 10° ENE daylight
25 Jan - 10:22:52 10° WSW 10:42:33 73° NW 10:59:55 10° NE daylight
25 Jan - 12:44:09 10° W 12:59:43 30° NW 13:11:36 10° NNE daylight
25 Jan - 21:59:13 10° WNW 22:02:55 70° SW 22:06:51 10° SE night (unlit)
26 Jan - 04:46:31 10° S 04:49:59 11° SSE 04:53:52 10° SE visible
26 Jan - 06:54:24 10° SSW 07:07:58 36° SE 07:25:10 10° E daylight
26 Jan - 09:06:58 10° SW 09:25:26 83° SE 09:44:38 10° ENE daylight
26 Jan - 11:24:26 10° WSW 11:42:59 46° NW 11:58:15 10° NNE daylight
26 Jan - 13:51:35 10° WNW 14:00:46 16° NNW 14:08:12 10° N daylight
26 Jan - 20:45:55 10° NNW 20:49:47 34° NNE 20:53:09 10° E visible
26 Jan - 22:59:00 10° WSW 23:01:19 15° SSW 23:03:53 10° S night (unlit)
27 Jan - 05:41:36 10° SSW 05:51:19 22° SSE 06:03:59 10° ESE visible
27 Jan - 07:52:18 10° SW 08:08:25 60° SE 08:27:56 10° ENE daylight
27 Jan - 10:06:55 10° WSW 10:25:56 66° NW 10:43:56 10° NE daylight
27 Jan - 12:28:41 10° W 12:43:48 27° NNW 12:55:52 10° NNE daylight
27 Jan - 19:33:06 10° NNW 19:36:05 15° NNE 19:38:34 10° ENE visible
27 Jan - 21:44:15 10° WNW 21:47:56 43° SW 21:51:32 10° SE night (unlit)
28 Jan - 04:31:09 10° S 04:34:51 12° SSE 04:39:03 10° SE visible
28 Jan - 06:38:39 10° SSW 06:51:48 40° SE 07:09:25 10° E daylight
28 Jan - 08:51:05 10° SW 09:08:47 89° NW 09:28:33 10° NE daylight
28 Jan - 11:08:45 10° W 11:26:40 41° NW 11:42:18 10° NNE daylight
28 Jan - 13:36:34 10° NW 13:45:26 15° NNW 13:52:48 10° N daylight
28 Jan - 20:30:16 10° NW 20:34:50 54° NNE 20:38:26 10° ESE visible
29 Jan - 05:26:01 10° SSW 05:35:36 24° SE 05:48:35 10° E visible
29 Jan - 07:36:30 10° SW 07:51:54 66° SE 08:11:50 10° ENE daylight
29 Jan - 09:51:09 10° WSW 10:09:24 59° NW 10:27:48 10° NE daylight
29 Jan - 12:13:26 10° WNW 12:27:59 25° NNW 12:40:06 10° NNE daylight
29 Jan - 19:16:35 10° NNW 19:21:13 23° NNE 19:24:39 10° E visible
29 Jan - 21:29:23 10° W 21:32:54 28° SW 21:36:08 10° SSE night (unlit)
